Tracking 26325 objects as of 28-Nov-2022
HD Live streaming from Space Station
objects crossing your sky now

SL-24 DEB

Track SL-24 DEB now!
10-day predictions


NORAD ID: 33398
Int'l Code: 2008-049C
Perigee: 626.9 km
Apogee: 664.9 km
Inclination: 98.8 °
Period: 97.5 minutes
Semi major axis: 7016 km
RCS: 7.1923 m2 (large)
Launch date: October 1, 2008
Source: Commonwealth of Independent States (former USSR) (CIS)
Launch site: Orenburg, Russia (OREN)

Note: This is SATELLITE DEBRIS
aabbcc
Your satellite tracking list
Your tracking list is empty




NASA's NSSDC Master Catalog

Two Line Element Set (TLE):
1 33398U 08049C   22331.71865832  .00001047  00000-0  15650-3 0  9990
2 33398  98.8328 185.6147 0027071   8.7232 351.4440 14.77002644761018
Source of the keplerian elements: AFSPC